Hattiesburg, MS

5:28 AM CDT on April 28, 2017 (GMT -0500)
Chain Municipal

Weather History for KHBG - January, 2014

Change the Weather History Date:

Friday, January 31, 2014

  Actual Average Record
Temperature  
Mean Temperature 44 °F 49 °F  
Max Temperature 64 °F 60 °F 83 °F (1950)
Min Temperature 23 °F 37 °F 10 °F (1966)
Degree Days  
Heating Degree Days 21 16  
Month to date heating degree days 713 519  
Since 1 July heating degree days 1534 1299  
Cooling Degree Days 0 0  
Month to date cooling degree days 0 6  
Year to date cooling degree days 0 6  
Moisture  
Dew Point 32 °F    
Average Humidity 66    
Maximum Humidity 88    
Minimum Humidity 43    
Precipitation  
Precipitation 0.00 in 0.22 in 1.74 in (2008)
Month to date precipitation 2.67 5.74  
Year to date precipitation 2.67 5.74  
Sea Level Pressure  
Sea Level Pressure 30.14 in    
Wind  
Wind Speed 3 mph (SE)    
Max Wind Speed 13 mph    
Max Gust Speed 17 mph    
Visibility 10 miles    
Events      
T = Trace of Precipitation, MM = Missing Value Source: NWS Daily Summary

Daily Weather History Graph

Daily Weather History Graph

Search for Another Location

Airport or City:

Trip Planner

Search our weather history database for the weather conditions in past years. The results will help you decide how hot, cold, wet, or windy it might be!

Date:

Astronomy

Jan. 31, 2014 Rise Set
Actual Time 6:49 AM CST 5:31 PM CST
Civil Twilight 6:24 AM CST 5:56 PM CST
Nautical Twilight 5:55 AM CST 6:25 PM CST
Astronomical Twilight 5:26 AM CST 6:54 PM CST
Moon 7:06 AM CST (1/31) 6:47 PM CST (1/31)
Length of Visible Light 11h 32m
Length of Day
10h 41m
New Moon, 1% of the Moon is Illuminated
Jan 31
New Moon
Feb 6
First Quarter
Feb 14
Full
Feb 22
Last Quarter
Mar 1
New

Hourly Weather History & Observations

Time (CST) Temp. Windchill Dew Point Humidity Pressure Visibility Wind Dir Wind Speed Gust Speed Precip Events Conditions
12:53 AM 26.1 °F 20.5 °F 21.0 °F 81% 30.15 in 10.0 mi South 4.6 mph - N/A   Clear
1:53 AM 25.0 °F - 19.9 °F 81% 30.17 in 10.0 mi Calm Calm - N/A   Clear
2:53 AM 25.0 °F 20.7 °F 19.9 °F 81% 30.14 in 10.0 mi SSE 3.5 mph - N/A   Clear
3:53 AM 25.0 °F - 19.9 °F 81% 30.17 in 10.0 mi Calm Calm - N/A   Clear
4:53 AM 24.1 °F - 19.9 °F 84% 30.18 in 10.0 mi Calm Calm - N/A   Clear
5:53 AM 23.0 °F - 19.9 °F 88% 30.19 in 10.0 mi Calm Calm - N/A   Clear
6:53 AM 24.1 °F - 19.0 °F 81% 30.20 in 10.0 mi Calm Calm - N/A   Clear
7:53 AM 28.0 °F - 23.0 °F 81% 30.21 in 10.0 mi Calm Calm - N/A   Clear
8:53 AM 35.1 °F 30.1 °F 27.0 °F 72% 30.22 in 10.0 mi East 5.8 mph - N/A   Clear
9:53 AM 43.0 °F 41.3 °F 30.0 °F 60% 30.22 in 10.0 mi ESE 3.5 mph - N/A   Clear
10:53 AM 52.0 °F - 33.1 °F 49% 30.20 in 10.0 mi East 4.6 mph - N/A   Clear
11:34 AM 55.0 °F - 35.1 °F 47% 30.18 in 10.0 mi East 5.8 mph - N/A   Mostly Cloudy
11:53 AM 57.0 °F - 36.0 °F 45% 30.17 in 10.0 mi ESE 5.8 mph - N/A   Mostly Cloudy
12:03 PM 59.0 °F - 39.0 °F 48% 30.16 in 10.0 mi ESE 8.1 mph - N/A   Scattered Clouds
12:53 PM 60.1 °F - 39.9 °F 47% 30.13 in 10.0 mi SSW 9.2 mph - N/A   Clear
1:53 PM 63.0 °F - 42.1 °F 46% 30.10 in 10.0 mi SSE 6.9 mph - N/A   Clear
2:53 PM 63.0 °F - 41.0 °F 45% 30.08 in 10.0 mi West 3.5 mph - N/A   Clear
3:53 PM 63.0 °F - 39.9 °F 43% 30.08 in 10.0 mi SSW 3.5 mph - N/A   Clear
4:53 PM 62.1 °F - 39.0 °F 43% 30.08 in 10.0 mi SE 4.6 mph - N/A   Clear
5:53 PM 53.1 °F - 39.9 °F 61% 30.08 in 10.0 mi Calm Calm - N/A   Clear
6:53 PM 45.0 °F - 39.0 °F 80% 30.09 in 10.0 mi Calm Calm - N/A   Clear
7:53 PM 41.0 °F - 36.0 °F 82% 30.11 in 10.0 mi Calm Calm - N/A   Clear
8:53 PM 39.0 °F 36.8 °F 34.0 °F 82% 30.11 in 10.0 mi ESE 3.5 mph - N/A   Clear
9:53 PM 46.9 °F - 43.0 °F 86% 30.10 in 10.0 mi South 5.8 mph - N/A   Clear
10:53 PM 46.0 °F 41.9 °F 42.1 °F 86% 30.08 in 10.0 mi SSE 8.1 mph - N/A   Clear
11:53 PM 41.0 °F - 37.9 °F 89% 30.08 in 10.0 mi Calm Calm - N/A   Clear